Weather History for Sisseton, SD

Change the Weather History Date:

Friday, November 19, 2010

  Actual Average Record
Temperature  
Mean Temperature 25 °F 29 °F  
Max Temperature 37 °F 38 °F 64 °F (1989)
Min Temperature 12 °F 20 °F -10 °F (1932)
Degree Days  
Heating Degree Days 40 36  
Month to date heating degree days 510 590  
Since 1 July heating degree days 1219 1417  
Cooling Degree Days 0 0  
Month to date cooling degree days 0 0  
Year to date cooling degree days 594 527  
Moisture  
Dew Point 13 °F    
Average Humidity 65    
Maximum Humidity 92    
Minimum Humidity 38    
Precipitation  
Precipitation 0.00 in 0.02 in 0.41 in (1977)
Month to date precipitation 0.02 0.47  
Year to date precipitation 23.67 21.83  
Snow  
Snow 0.00 in - - ()
Month to date snowfall T  
Since 1 July snowfall 0.1  
Snow Depth 0.00 in    
Sea Level Pressure  
Sea Level Pressure 30.08 in    
Wind  
Wind Speed 16 mph (NNW)    
Max Wind Speed 31 mph    
Max Gust Speed 39 mph    
T = Trace of Precipitation, MM = Missing Value Source: NWS Daily Summary

Daily Weather History Graph

Daily Weather History Graph

Search for Another Location

Airport:

Trip Planner

Search our weather history database for the weather conditions in past years. The results will help you decide how hot, cold, wet, or windy it might be!

Date:

Astronomy

Nov. 19, 2010 Rise Set
Actual Time 7:33 AM CST 4:53 PM CST
Civil Twilight 7:00 AM CST 5:25 PM CST
Nautical Twilight 6:24 AM CST 6:02 PM CST
Astronomical Twilight 5:48 AM CST 6:37 PM CST
Moon 3:25 PM CST (11/19) 5:29 AM CST (11/19)
Length of Visible Light 10h 25m
Length of Day
9h 20m
Waxing Gibbous, 96% of the Moon is Illuminated
Nov 19
Waxing Gibbous
Nov 21
Full
Nov 28
Last Quarter
Dec 5
New
Dec 13
First Quarter

Hourly Weather History & Observations

Time (CST) Temp. Windchill Dew Point Humidity Pressure Visibility Wind Dir Wind Speed Gust Speed Precip Events Conditions
12:56 AM 28.9 °F 20.4 °F 27.0 °F 92% 29.70 in - SSE 9.2 mph - 0.01 in   Unknown
1:56 AM 28.0 °F 21.7 °F 27.0 °F 96% 29.70 in - SE 5.8 mph - N/A   Unknown
2:56 AM 32.0 °F 24.8 °F 28.9 °F 88% 29.72 in - NW 8.1 mph - N/A   Unknown
3:56 AM 35.1 °F 22.2 °F 30.0 °F 82% 29.75 in - NNW 27.6 mph 33.4 mph N/A   Unknown
4:56 AM 32.0 °F 19.8 °F 28.0 °F 85% 29.82 in - NNW 20.7 mph 28.8 mph N/A   Unknown
5:56 AM 30.9 °F 16.7 °F 24.1 °F 76% 29.87 in - NNW 27.6 mph 34.5 mph N/A   Unknown
6:56 AM 26.1 °F 12.0 °F 17.1 °F 69% 29.94 in - NNW 20.7 mph 29.9 mph N/A   Unknown
7:56 AM 24.1 °F 10.6 °F 16.0 °F 71% 29.99 in - NNW 17.3 mph - N/A   Unknown
8:56 AM 25.0 °F 9.5 °F 14.0 °F 63% 30.03 in - NNW 24.2 mph 29.9 mph N/A   Unknown
9:56 AM 23.0 °F 7.2 °F 10.0 °F 58% 30.06 in - NNW 23.0 mph - N/A   Unknown
10:56 AM 26.1 °F 9.8 °F 8.1 °F 47% 30.08 in - NNW 28.8 mph 34.5 mph N/A   Unknown
11:56 AM 24.1 °F 10.1 °F 7.0 °F 48% 30.13 in - NNW 18.4 mph 26.5 mph N/A   Unknown
12:56 PM 25.0 °F 10.2 °F 7.0 °F 46% 30.13 in - NNW 21.9 mph 27.6 mph N/A   Unknown
1:56 PM 26.1 °F 11.6 °F 7.0 °F 44% 30.15 in - NNW 21.9 mph 29.9 mph N/A   Unknown
2:56 PM 26.1 °F 11.3 °F 5.0 °F 41% 30.16 in - NNW 23.0 mph 27.6 mph N/A   Unknown
3:56 PM 24.1 °F 9.8 °F 5.0 °F 44% 30.17 in - NNW 19.6 mph - N/A   Unknown
4:56 PM 21.9 °F 10.4 °F 5.0 °F 48% 30.21 in - NNW 11.5 mph - N/A   Unknown
5:56 PM 19.9 °F 7.3 °F 5.0 °F 52% 30.24 in - North 12.7 mph - N/A   Unknown
6:56 PM 18.0 °F 6.9 °F 3.9 °F 54% 30.28 in - North 9.2 mph - N/A   Unknown
7:56 PM 16.0 °F 5.3 °F 5.0 °F 62% 30.30 in - NNW 8.1 mph - N/A   Unknown
8:56 PM 16.0 °F 4.4 °F 5.0 °F 62% 30.31 in - NNW 9.2 mph - N/A   Unknown
9:56 PM 15.1 °F 5.2 °F 6.1 °F 68% 30.36 in - NNW 6.9 mph - N/A   Unknown
10:56 PM 12.9 °F 2.6 °F 6.1 °F 74% 30.38 in - North 6.9 mph - N/A   Unknown
11:56 PM 15.1 °F 3.3 °F 6.1 °F 68% 30.40 in - North 9.2 mph - N/A   Unknown